,,PA_Meas_PMT16A,,PR_Meas_QMR101_102,,RH_Meas_QMH101,,SR_Meas_QMS101,,TA_Meas_QMH101,,GenWind,,GenWind,
time,status,PA,status,PR,status,RH,status,SR,status,TA,status,DirAvg,status,SpdAvg,
2010-12-29, 00:00:04,VALID,916.007,VALID,0,VALID,90.5357,VALID,0,VALID,18.2796,VALID,133,VALID,0.665625,
2010-12-29, 00:01:04,VALID,916.014,VALID,0,VALID,90.6195,VALID,0,VALID,18.3004,VALID,133,VALID,0.662109,
2010-12-29, 00:02:04,VALID,915.984,VALID,0,VALID,90.6272,VALID,0,VALID,18.2809,VALID,133,VALID,0.472656,
2010-12-29, 00:03:04,VALID,915.997,VALID,0,VALID,90.6882,VALID,0,VALID,18.2601,VALID,133,VALID,0.602344,
2010-12-29, 00:04:04,VALID,916.002,VALID,0,VALID,90.7644,VALID,0,VALID,18.242,VALID,133,VALID,0.8,
2010-12-29, 00:05:04,VALID,915.987,VALID,0,VALID,90.9626,VALID,0,VALID,18.242,VALID,133,VALID,0.685547,
2010-12-29, 00:06:04,VALID,915.99,VALID,0,VALID,90.9855,VALID,0,VALID,18.2211,VALID,133,VALID,0.813672,
2010-12-29, 00:07:04,VALID,915.965,VALID,0,VALID,90.8635,VALID,0,VALID,18.242,VALID,133,VALID,0.789063,
2010-12-29, 00:08:04,VALID,915.956,VALID,0,VALID,90.6348,VALID,0,VALID,18.2615,VALID,133,VALID,1.01367,
2010-12-29, 00:09:04,VALID,915.945,VALID,0,VALID,90.5052,VALID,0,VALID,18.3004,VALID,133,VALID,0.999609,
2010-12-29, 00:10:04,VALID,915.956,VALID,0,VALID,90.3527,VALID,0,VALID,18.299,VALID,133,VALID,0.659375,
2010-12-29, 00:11:04,VALID,915.913,VALID,0,VALID,90.1621,VALID,0,VALID,18.3589,VALID,132,VALID,0.817187,
2010-12-29, 00:12:04,VALID,915.925,VALID,0,VALID,89.7886,VALID,0,VALID,18.3965,VALID,133,VALID,1.15391,
2010-12-29, 00:13:04,VALID,915.89,VALID,0,VALID,89.6895,VALID,0,VALID,18.4355,VALID,132,VALID,0.686328,
2010-12-29, 00:14:04,VALID,915.9,VALID,0,VALID,89.3998,VALID,0,VALID,18.4759,VALID,133,VALID,1.03359,
2010-12-29, 00:15:04,VALID,915.93,VALID,0,VALID,89.3388,VALID,0,VALID,18.4759,VALID,133,VALID,0.857031,
2010-12-29, 00:16:04,VALID,915.914,VALID,0,VALID,89.2321,VALID,0,VALID,18.4954,VALID,133,VALID,0.43125,
2010-12-29, 00:17:04,VALID,915.907,VALID,0,VALID,89.1635,VALID,0,VALID,18.5344,VALID,132,VALID,0.598828,
2010-12-29, 00:18:04,VALID,915.893,VALID,0,VALID,89.1635,VALID,0,VALID,18.5344,VALID,132,VALID,0.332812,
2010-12-29, 00:19:04,VALID,915.881,VALID,0,VALID,89.2473,VALID,0,VALID,18.5135,VALID,132,VALID,0.727734,
2010-12-29, 00:20:04,VALID,915.851,VALID,0,VALID,89.2092,VALID,0,VALID,18.5135,VALID,129,VALID,0.700781,
2010-12-29, 00:21:04,VALID,915.835,VALID,0,VALID,89.2397,VALID,0,VALID,18.5344,VALID,129,VALID,0.456641,
2010-12-29, 00:22:04,VALID,915.86,VALID,0,VALID,89.3617,VALID,0,VALID,18.5135,VALID,129,VALID,0.701953,
2010-12-29, 00:23:04,VALID,915.831,VALID,0,VALID,89.3464,VALID,0,VALID,18.5344,VALID,129,VALID,0.428516,
2010-12-29, 00:24:04,VALID,915.819,VALID,0,VALID,89.3693,VALID,0,VALID,18.5344,VALID,129,VALID,0.501953,
2010-12-29, 00:25:04,VALID,915.809,VALID,0,VALID,89.2245,VALID,0,VALID,18.5344,VALID,129,VALID,0.6,
2010-12-29, 00:26:04,VALID,915.822,VALID,0,VALID,89.4837,VALID,0,VALID,18.494,VALID,129,VALID,0.377344,
2010-12-29, 00:27:04,VALID,915.839,VALID,0,VALID,89.6971,VALID,0,VALID,18.494,VALID,129,VALID,0.438281,
2010-12-29, 00:28:04,VALID,915.83,VALID,0,VALID,89.6742,VALID,0,VALID,18.4745,VALID,129,VALID,0.533594,
2010-12-29, 00:29:04,VALID,915.815,VALID,0,VALID,89.7352,VALID,0,VALID,18.4954,VALID,129,VALID,0.428125,
2010-12-29, 00:30:04,VALID,915.798,VALID,0,VALID,89.9106,VALID,0,VALID,18.455,VALID,129,VALID,0.554297,
2010-12-29, 00:31:04,VALID,915.802,VALID,0,VALID,89.9868,VALID,0,VALID,18.4355,VALID,129,VALID,0.680469,
2010-12-29, 00:32:04,VALID,915.804,VALID,0,VALID,90.2155,VALID,0,VALID,18.3979,VALID,129,VALID,0.559375,
2010-12-29, 00:33:04,VALID,915.813,VALID,0,VALID,90.1698,VALID,0,VALID,18.377,VALID,129,VALID,0.462109,
2010-12-29, 00:34:04,VALID,915.807,VALID,0,VALID,90.1621,VALID,0,VALID,18.3965,VALID,129,VALID,0.353125,
2010-12-29, 00:35:04,VALID,915.762,VALID,0,VALID,90.1393,VALID,0,VALID,18.4174,VALID,129,VALID,0.915625,
2010-12-29, 00:36:04,VALID,915.727,VALID,0,VALID,89.9868,VALID,0,VALID,18.4369,VALID,129,VALID,0.634375,
2010-12-29, 00:37:04,VALID,915.735,VALID,0,VALID,90.0021,VALID,0,VALID,18.4564,VALID,128,VALID,0.605078,
2010-12-29, 00:38:04,VALID,915.706,VALID,0,VALID,89.9868,VALID,0,VALID,18.4759,VALID,128,VALID,0.885156,
2010-12-29, 00:39:04,VALID,915.71,VALID,0,VALID,90.2155,VALID,0,VALID,18.4355,VALID,129,VALID,0.886719,
2010-12-29, 00:40:04,VALID,915.689,VALID,0,VALID,90.4061,VALID,0,VALID,18.4564,VALID,128,VALID,0.683984,
2010-12-29, 00:41:04,VALID,915.664,VALID,0,VALID,90.6729,VALID,0,VALID,18.4174,VALID,128,VALID,0.469531,
2010-12-29, 00:42:04,VALID,915.648,VALID,0,VALID,91.2218,VALID,0,VALID,18.3185,VALID,128,VALID,0.678516,
2010-12-29, 00:43:04,VALID,915.654,VALID,0,VALID,91.7326,VALID,0,VALID,18.2211,VALID,128,VALID,0.857813,
2010-12-29, 00:44:04,VALID,915.636,VALID,0,VALID,92.3043,VALID,0,VALID,18.203,VALID,128,VALID,0.937109,
2010-12-29, 00:45:04,VALID,915.64,VALID,0,VALID,92.4187,VALID,0,VALID,18.2225,VALID,128,VALID,0.984375,
2010-12-29, 00:46:04,VALID,915.628,VALID,0,VALID,92.3501,VALID,0,VALID,18.242,VALID,128,VALID,0.789063,
2010-12-29, 00:47:04,VALID,915.602,VALID,0,VALID,92.411,VALID,0,VALID,18.2406,VALID,128,VALID,0.991016,
2010-12-29, 00:48:04,VALID,915.59,VALID,0,VALID,92.4873,VALID,0,VALID,18.2406,VALID,128,VALID,0.897656,
2010-12-29, 00:49:04,VALID,915.575,VALID,0,VALID,92.5864,VALID,0,VALID,18.2809,VALID,128,VALID,1.25117,
2010-12-29, 00:50:04,VALID,915.562,VALID,0,VALID,92.6397,VALID,0,VALID,18.2809,VALID,128,VALID,1.39219,
2010-12-29, 00:51:04,VALID,915.555,VALID,0,VALID,92.4492,VALID,0,VALID,18.338,VALID,128,VALID,0.641797,
2010-12-29, 00:52:04,VALID,915.546,VALID,0,VALID,92.251,VALID,0,VALID,18.3784,VALID,128,VALID,0.732813,
2010-12-29, 00:53:04,VALID,915.527,VALID,0,VALID,92.0985,VALID,0,VALID,18.4174,VALID,128,VALID,1.07031,
2010-12-29, 00:54:04,VALID,915.513,VALID,0,VALID,92.0223,VALID,0,VALID,18.416,VALID,128,VALID,0.841406,
2010-12-29, 00:55:04,VALID,915.488,VALID,0,VALID,91.9689,VALID,0,VALID,18.4369,VALID,138,VALID,0.942578,
2010-12-29, 00:56:04,VALID,915.482,VALID,0,VALID,91.7478,VALID,0,VALID,18.4355,VALID,138,VALID,0.850781,
2010-12-29, 00:57:04,VALID,915.509,VALID,0,VALID,91.6945,VALID,0,VALID,18.416,VALID,138,VALID,0.688281,
2010-12-29, 00:58:04,VALID,915.496,VALID,0,VALID,91.5496,VALID,0,VALID,18.416,VALID,139,VALID,1.15703,
2010-12-29, 00:59:04,VALID,915.498,VALID,0,VALID,91.5039,VALID,0,VALID,18.4355,VALID,164,VALID,1.35039,
2010-12-29, 01:00:04,VALID,915.447,VALID,0,VALID,91.3666,VALID,0,VALID,18.494,VALID,170,VALID,0.607031,
2010-12-29, 01:01:04,VALID,915.433,VALID,0,VALID,91.3514,VALID,0,VALID,18.494,VALID,170,VALID,0.365625,
2010-12-29, 01:02:04,VALID,915.42,VALID,0,VALID,91.2142,VALID,0,VALID,18.494,VALID,170,VALID,0.720312,
2010-12-29, 01:03:04,VALID,915.417,VALID,0,VALID,91.0922,VALID,0,VALID,18.5135,VALID,165,VALID,0.684375,
2010-12-29, 01:04:04,VALID,915.351,VALID,0,VALID,91.1074,VALID,0,VALID,18.5344,VALID,165,VALID,0.856641,
2010-12-29, 01:05:04,VALID,915.313,VALID,0,VALID,91.0007,VALID,0,VALID,18.533,VALID,165,VALID,0.612109,
2010-12-29, 01:06:04,VALID,915.306,VALID,0,VALID,90.9016,VALID,0,VALID,18.5344,VALID,165,VALID,0.792188,
2010-12-29, 01:07:04,VALID,915.277,VALID,0,VALID,90.8635,VALID,0,VALID,18.533,VALID,165,VALID,0.703906,
2010-12-29, 01:08:04,VALID,915.282,VALID,0,VALID,90.8711,VALID,0,VALID,18.5539,VALID,165,VALID,0.406641,
2010-12-29, 01:09:04,VALID,915.237,VALID,0,VALID,90.6577,VALID,0,VALID,18.533,VALID,164,VALID,0.736719,
2010-12-29, 01:10:04,VALID,915.268,VALID,0,VALID,90.1926,VALID,0,VALID,18.5344,VALID,132,VALID,0.760547,
2010-12-29, 01:11:04,VALID,915.274,VALID,0,VALID,90.1393,VALID,0,VALID,18.533,VALID,132,VALID,0.833984,
2010-12-29, 01:12:04,VALID,915.242,VALID,0,VALID,90.307,VALID,0,VALID,18.494,VALID,132,VALID,0.879297,
2010-12-29, 01:13:04,VALID,915.265,VALID,0,VALID,90.3908,VALID,0,VALID,18.455,VALID,132,VALID,0.880469,
2010-12-29, 01:14:04,VALID,915.274,VALID,0,VALID,90.246,VALID,0,VALID,18.4355,VALID,132,VALID,1.04297,
2010-12-29, 01:15:04,VALID,915.279,VALID,0,VALID,90.0097,VALID,0,VALID,18.4759,VALID,132,VALID,1.16602,
2010-12-29, 01:16:04,VALID,915.312,VALID,0,VALID,89.8038,VALID,0,VALID,18.4745,VALID,132,VALID,0.999609,
2010-12-29, 01:17:04,VALID,915.332,VALID,0,VALID,89.8801,VALID,0,VALID,18.494,VALID,132,VALID,0.390625,
2010-12-29, 01:18:04,VALID,915.323,VALID,0,VALID,89.7886,VALID,0,VALID,18.4954,VALID,132,VALID,0.935547,
2010-12-29, 01:19:04,VALID,915.311,VALID,0,VALID,89.8343,VALID,0,VALID,18.4745,VALID,132,VALID,0.703516,
2010-12-29, 01:20:04,VALID,915.293,VALID,0,VALID,89.9106,VALID,0,VALID,18.4745,VALID,132,VALID,0.776563,
2010-12-29, 01:21:04,VALID,915.307,VALID,0,VALID,90.0402,VALID,0,VALID,18.4954,VALID,132,VALID,0.348047,
2010-12-29, 01:22:04,VALID,915.27,VALID,0,VALID,90.246,VALID,0,VALID,18.4759,VALID,132,VALID,0.339453,
2010-12-29, 01:23:04,VALID,915.305,VALID,0,VALID,90.5052,VALID,0,VALID,18.4355,VALID,132,VALID,0.424609,
2010-12-29, 01:24:04,VALID,915.241,VALID,0,VALID,90.8711,VALID,0,VALID,18.3965,VALID,132,VALID,0.4625,
2010-12-29, 01:25:04,VALID,915.218,VALID,0,VALID,91.237,VALID,0,VALID,18.3575,VALID,132,VALID,0.380078,
2010-12-29, 01:26:04,VALID,915.209,VALID,0,VALID,91.6335,VALID,0,VALID,18.3199,VALID,132,VALID,0.208984,
2010-12-29, 01:27:04,VALID,915.178,VALID,0,VALID,91.7935,VALID,0,VALID,18.2601,VALID,132,VALID,0.434375,
2010-12-29, 01:28:04,VALID,915.155,VALID,0,VALID,91.7554,VALID,0,VALID,18.2796,VALID,132,VALID,0.265625,
2010-12-29, 01:29:04,VALID,915.136,VALID,0,VALID,91.7021,VALID,0,VALID,18.2601,VALID,132,VALID,0.382031,
2010-12-29, 01:30:04,VALID,915.144,VALID,0,VALID,91.6258,VALID,0,VALID,18.2796,VALID,132,VALID,0.372266,
2010-12-29, 01:31:04,VALID,915.134,VALID,0,VALID,91.5115,VALID,0,VALID,18.299,VALID,132,VALID,0.225,
2010-12-29, 01:32:04,VALID,915.103,VALID,0,VALID,91.4124,VALID,0,VALID,18.3185,VALID,132,VALID,0.301172,
2010-12-29, 01:33:04,VALID,915.088,VALID,0,VALID,91.42,VALID,0,VALID,18.3199,VALID,132,VALID,0.238672,
2010-12-29, 01:34:04,VALID,915.054,VALID,0,VALID,91.359,VALID,0,VALID,18.3199,VALID,132,VALID,0.399609,
2010-12-29, 01:35:04,VALID,915.019,VALID,0,VALID,91.1227,VALID,0,VALID,18.3185,VALID,132,VALID,0.497656,
2010-12-29, 01:36:04,VALID,914.984,VALID,0,VALID,90.7415,VALID,0,VALID,18.3575,VALID,132,VALID,0.478906,
2010-12-29, 01:37:04,VALID,914.936,VALID,0,VALID,90.3756,VALID,0,VALID,18.3979,VALID,132,VALID,0.699609,
2010-12-29, 01:38:04,VALID,914.951,VALID,0,VALID,90.246,VALID,0,VALID,18.416,VALID,132,VALID,0.4875,
2010-12-29, 01:39:04,VALID,914.912,VALID,0,VALID,90.0783,VALID,0,VALID,18.4369,VALID,132,VALID,0.496484,
2010-12-29, 01:40:04,VALID,914.887,VALID,0,VALID,90.246,VALID,0,VALID,18.3756,VALID,132,VALID,0.526563,
2010-12-29, 01:41:04,VALID,914.915,VALID,0,VALID,90.4366,VALID,0,VALID,18.3185,VALID,132,VALID,0.721875,
2010-12-29, 01:42:04,VALID,914.892,VALID,0,VALID,90.2155,VALID,0,VALID,18.338,VALID,132,VALID,0.682422,
2010-12-29, 01:43:04,VALID,914.858,VALID,0,VALID,89.9944,VALID,0,VALID,18.3575,VALID,132,VALID,0.762109,
2010-12-29, 01:44:04,VALID,914.864,VALID,0,VALID,90.0249,VALID,0,VALID,18.3784,VALID,132,VALID,0.473828,
2010-12-29, 01:45:04,VALID,914.854,VALID,0,VALID,90.1774,VALID,0,VALID,18.3979,VALID,132,VALID,0.725781,
2010-12-29, 01:46:04,VALID,914.829,VALID,0,VALID,90.3299,VALID,0,VALID,18.3575,VALID,132,VALID,0.432031,
2010-12-29, 01:47:04,VALID,914.823,VALID,0,VALID,90.5891,VALID,0,VALID,18.3979,VALID,132,VALID,0.713672,
2010-12-29, 01:48:04,VALID,914.821,VALID,0,VALID,90.8635,VALID,0,VALID,18.338,VALID,132,VALID,0.6125,
2010-12-29, 01:49:04,VALID,914.785,VALID,0,VALID,91.1837,VALID,0,VALID,18.299,VALID,132,VALID,0.853125,
2010-12-29, 01:50:04,VALID,914.788,VALID,0,VALID,91.5725,VALID,0,VALID,18.2406,VALID,132,VALID,0.860937,
2010-12-29, 01:51:04,VALID,914.821,VALID,0,VALID,92.0909,VALID,0,VALID,18.1821,VALID,132,VALID,0.778906,
2010-12-29, 01:52:04,VALID,914.792,VALID,0,VALID,92.5788,VALID,0,VALID,18.1236,VALID,133,VALID,0.787109,
2010-12-29, 01:53:04,VALID,914.782,VALID,0,VALID,93.0743,VALID,0,VALID,18.125,VALID,152,VALID,0.819922,
2010-12-29, 01:54:04,VALID,914.761,VALID,0,VALID,93.3564,VALID,0,VALID,18.0457,VALID,152,VALID,0.781641,
2010-12-29, 01:55:04,VALID,914.738,VALID,0,VALID,93.5393,VALID,0,VALID,18.0665,VALID,152,VALID,0.669922,
2010-12-29, 01:56:04,VALID,914.713,VALID,0,VALID,93.6765,VALID,0,VALID,18.0665,VALID,152,VALID,0.480078,
2010-12-29, 01:57:04,VALID,914.722,VALID,0,VALID,93.646,VALID,0,VALID,18.047,VALID,152,VALID,0.730078,
2010-12-29, 01:58:04,VALID,914.682,VALID,0,VALID,93.6155,VALID,0,VALID,18.0457,VALID,152,VALID,0.760547,
2010-12-29, 01:59:04,VALID,914.672,VALID,0,VALID,93.4173,VALID,0,VALID,18.0651,VALID,152,VALID,0.583594,
2010-12-29, 02:00:04,VALID,914.664,VALID,0,VALID,93.3487,VALID,0,VALID,18.0846,VALID,152,VALID,0.576953,
2010-12-29, 02:01:04,VALID,914.639,VALID,0,VALID,93.2649,VALID,0,VALID,18.1055,VALID,152,VALID,0.705859,
2010-12-29, 02:02:04,VALID,914.653,VALID,0,VALID,93.2877,VALID,0,VALID,18.125,VALID,152,VALID,0.808203,
2010-12-29, 02:03:04,VALID,914.641,VALID,0,VALID,93.2877,VALID,0,VALID,18.1236,VALID,152,VALID,0.822656,
2010-12-29, 02:04:04,VALID,914.613,VALID,0,VALID,93.3106,VALID,0,VALID,18.1445,VALID,152,VALID,0.890625,
2010-12-29, 02:05:04,VALID,914.618,VALID,0,VALID,93.4402,VALID,0,VALID,18.125,VALID,152,VALID,0.908594,
2010-12-29, 02:06:04,VALID,914.623,VALID,0,VALID,93.707,VALID,0,VALID,18.0846,VALID,152,VALID,0.876172,
2010-12-29, 02:07:04,VALID,914.606,VALID,0,VALID,93.8824,VALID,0,VALID,18.086,VALID,152,VALID,1.02734,
2010-12-29, 02:08:04,VALID,914.569,VALID,0,VALID,94.012,VALID,0,VALID,18.0262,VALID,152,VALID,0.866016,
2010-12-29, 02:09:04,VALID,914.571,VALID,0,VALID,94.1034,VALID,0,VALID,18.0067,VALID,152,VALID,0.463281,
2010-12-29, 02:10:04,VALID,914.562,VALID,0,VALID,94.233,VALID,0,VALID,18.0067,VALID,152,VALID,0.316797,
2010-12-29, 02:11:04,VALID,914.549,VALID,0,VALID,94.233,VALID,0,VALID,17.9872,VALID,152,VALID,0.996094,
2010-12-29, 02:12:04,VALID,914.557,VALID,0,VALID,94.1644,VALID,0,VALID,17.9677,VALID,152,VALID,0.709766,
2010-12-29, 02:13:04,VALID,914.559,VALID,0,VALID,94.1187,VALID,0,VALID,17.9872,VALID,152,VALID,0.805469,
2010-12-29, 02:14:04,VALID,914.534,VALID,0,VALID,94.0501,VALID,0,VALID,18.008,VALID,152,VALID,0.365234,
2010-12-29, 02:15:04,VALID,914.571,VALID,0,VALID,94.0348,VALID,0,VALID,18.0275,VALID,152,VALID,0.901953,
2010-12-29, 02:16:04,VALID,914.556,VALID,0,VALID,93.9738,VALID,0,VALID,18.0275,VALID,152,VALID,0.568359,
2010-12-29, 02:17:04,VALID,914.537,VALID,0,VALID,93.9281,VALID,0,VALID,18.0275,VALID,136,VALID,0.810156,
2010-12-29, 02:18:04,VALID,914.543,VALID,0,VALID,93.8366,VALID,0,VALID,18.0275,VALID,136,VALID,0.720703,
2010-12-29, 02:19:04,VALID,914.554,VALID,0,VALID,93.8138,VALID,0,VALID,18.047,VALID,136,VALID,1.01758,
2010-12-29, 02:20:04,VALID,914.522,VALID,0,VALID,93.6613,VALID,0,VALID,18.0665,VALID,136,VALID,0.526563,
2010-12-29, 02:21:04,VALID,914.514,VALID,0,VALID,93.4783,VALID,0,VALID,18.1055,VALID,136,VALID,0.657422,
2010-12-29, 02:22:04,VALID,914.512,VALID,0,VALID,93.4097,VALID,0,VALID,18.086,VALID,136,VALID,0.756641,
2010-12-29, 02:23:04,VALID,914.485,VALID,0,VALID,93.2496,VALID,0,VALID,18.1055,VALID,136,VALID,0.585156,
2010-12-29, 02:24:04,VALID,914.472,VALID,0,VALID,93.242,VALID,0,VALID,18.1445,VALID,136,VALID,0.505859,
2010-12-29, 02:25:04,VALID,914.46,VALID,0,VALID,93.0819,VALID,0,VALID,18.164,VALID,136,VALID,0.627734,
2010-12-29, 02:26:04,VALID,914.442,VALID,0,VALID,92.8303,VALID,0,VALID,18.164,VALID,136,VALID,0.8125,
2010-12-29, 02:27:04,VALID,914.428,VALID,0,VALID,92.7389,VALID,0,VALID,18.1835,VALID,136,VALID,0.571094,
2010-12-29, 02:28:04,VALID,914.426,VALID,0,VALID,92.6093,VALID,0,VALID,18.1835,VALID,136,VALID,0.615625,
2010-12-29, 02:29:04,VALID,914.381,VALID,0,VALID,92.6093,VALID,0,VALID,18.1835,VALID,136,VALID,0.460938,
2010-12-29, 02:30:04,VALID,914.359,VALID,0,VALID,92.6093,VALID,0,VALID,18.1835,VALID,136,VALID,0.69375,
2010-12-29, 02:31:04,VALID,914.318,VALID,0,VALID,92.6779,VALID,0,VALID,18.164,VALID,136,VALID,0.471094,
2010-12-29, 02:32:04,VALID,914.287,VALID,0,VALID,92.7084,VALID,0,VALID,18.164,VALID,136,VALID,0.734766,
2010-12-29, 02:33:04,VALID,914.261,VALID,0,VALID,92.7465,VALID,0,VALID,18.1445,VALID,136,VALID,0.538672,
2010-12-29, 02:34:04,VALID,914.223,VALID,0,VALID,92.8608,VALID,0,VALID,18.1445,VALID,136,VALID,0.733203,
2010-12-29, 02:35:04,VALID,914.238,VALID,0,VALID,92.9294,VALID,0,VALID,18.125,VALID,136,VALID,0.942187,
2010-12-29, 02:36:04,VALID,914.183,VALID,0,VALID,92.8075,VALID,0,VALID,18.1445,VALID,136,VALID,0.830859,
2010-12-29, 02:37:04,VALID,914.183,VALID,0,VALID,92.6702,VALID,0,VALID,18.1849,VALID,136,VALID,0.838672,
2010-12-29, 02:38:04,VALID,914.159,VALID,0,VALID,92.4415,VALID,0,VALID,18.1626,VALID,136,VALID,0.732031,
2010-12-29, 02:39:04,VALID,914.156,VALID,0,VALID,92.3882,VALID,0,VALID,18.1821,VALID,136,VALID,0.638672,
2010-12-29, 02:40:04,VALID,914.164,VALID,0,VALID,92.4263,VALID,0,VALID,18.203,VALID,136,VALID,0.794141,
2010-12-29, 02:41:04,VALID,914.149,VALID,0,VALID,92.4492,VALID,0,VALID,18.1835,VALID,136,VALID,0.998438,
2010-12-29, 02:42:04,VALID,914.133,VALID,0,VALID,92.5406,VALID,0,VALID,18.1835,VALID,136,VALID,1.1125,
2010-12-29, 02:43:04,VALID,914.169,VALID,0,VALID,92.6169,VALID,0,VALID,18.1835,VALID,136,VALID,0.955078,
2010-12-29, 02:44:04,VALID,914.164,VALID,0,VALID,92.716,VALID,0,VALID,18.1445,VALID,136,VALID,0.825,
2010-12-29, 02:45:04,VALID,914.189,VALID,0,VALID,92.8151,VALID,0,VALID,18.1445,VALID,136,VALID,0.539063,
2010-12-29, 02:46:04,VALID,914.183,VALID,0,VALID,92.9828,VALID,0,VALID,18.125,VALID,136,VALID,0.826953,
2010-12-29, 02:47:04,VALID,914.19,VALID,0,VALID,93.1505,VALID,0,VALID,18.0846,VALID,136,VALID,0.836719,
2010-12-29, 02:48:04,VALID,914.202,VALID,0,VALID,93.2572,VALID,0,VALID,18.086,VALID,136,VALID,0.691406,
2010-12-29, 02:49:04,VALID,914.165,VALID,0,VALID,93.3945,VALID,0,VALID,18.0262,VALID,136,VALID,0.761719,
2010-12-29, 02:50:04,VALID,914.169,VALID,0,VALID,93.5927,VALID,0,VALID,18.0275,VALID,136,VALID,0.853125,
2010-12-29, 02:51:04,VALID,914.159,VALID,0,VALID,93.7375,VALID,0,VALID,17.9886,VALID,136,VALID,1.15391,
2010-12-29, 02:52:04,VALID,914.15,VALID,0,VALID,93.89,VALID,0,VALID,17.9677,VALID,136,VALID,0.797656,
2010-12-29, 02:53:04,VALID,914.155,VALID,0,VALID,94.073,VALID,0,VALID,17.9691,VALID,136,VALID,1.09766,
2010-12-29, 02:54:04,VALID,914.146,VALID,0,VALID,94.0882,VALID,0,VALID,17.9482,VALID,136,VALID,0.98125,
2010-12-29, 02:55:04,VALID,914.133,VALID,0,VALID,94.0653,VALID,0,VALID,17.9691,VALID,136,VALID,1.21914,
2010-12-29, 02:56:04,VALID,914.135,VALID,0,VALID,93.951,VALID,0,VALID,17.9886,VALID,136,VALID,1.28047,
2010-12-29, 02:57:04,VALID,914.101,VALID,0,VALID,93.8214,VALID,0,VALID,18.008,VALID,136,VALID,1.37617,
2010-12-29, 02:58:04,VALID,914.131,VALID,0,VALID,93.6079,VALID,0,VALID,18.0275,VALID,136,VALID,1.11367,
2010-12-29, 02:59:04,VALID,914.102,VALID,0,VALID,93.4326,VALID,0,VALID,18.047,VALID,136,VALID,0.960156,
2010-12-29, 03:00:04,VALID,914.085,VALID,0,VALID,93.3411,VALID,0,VALID,18.0067,VALID,136,VALID,0.857031,
2010-12-29, 03:01:04,VALID,914.073,VALID,0,VALID,93.2725,VALID,0,VALID,18.0262,VALID,137,VALID,0.728516,
2010-12-29, 03:02:04,VALID,914.025,VALID,0,VALID,93.181,VALID,0,VALID,18.0665,VALID,136,VALID,1.02578,
2010-12-29, 03:03:04,VALID,914.067,VALID,0,VALID,92.9828,VALID,0,VALID,18.0665,VALID,136,VALID,0.794141,
2010-12-29, 03:04:04,VALID,914.033,VALID,0,VALID,92.7465,VALID,0,VALID,18.086,VALID,137,VALID,0.904688,
2010-12-29, 03:05:04,VALID,914.014,VALID,0,VALID,92.6093,VALID,0,VALID,18.125,VALID,136,VALID,0.926953,
2010-12-29, 03:06:04,VALID,914.002,VALID,0,VALID,92.411,VALID,0,VALID,18.164,VALID,137,VALID,0.719141,
2010-12-29, 03:07:04,VALID,913.997,VALID,0,VALID,92.3653,VALID,0,VALID,18.164,VALID,136,VALID,0.758203,
2010-12-29, 03:08:04,VALID,913.977,VALID,0,VALID,92.3882,VALID,0,VALID,18.125,VALID,137,VALID,0.721484,
2010-12-29, 03:09:04,VALID,913.975,VALID,0,VALID,92.3577,VALID,0,VALID,18.125,VALID,136,VALID,0.994922,
2010-12-29, 03:10:04,VALID,913.972,VALID,0,VALID,92.2433,VALID,0,VALID,18.1445,VALID,137,VALID,0.959375,
2010-12-29, 03:11:04,VALID,913.959,VALID,0,VALID,92.1137,VALID,0,VALID,18.1431,VALID,137,VALID,0.757031,
2010-12-29, 03:12:04,VALID,913.927,VALID,0,VALID,92.1747,VALID,0,VALID,18.164,VALID,136,VALID,0.485547,
2010-12-29, 03:13:04,VALID,913.965,VALID,0,VALID,92.2128,VALID,0,VALID,18.125,VALID,137,VALID,0.404687,
2010-12-29, 03:14:04,VALID,913.947,VALID,0,VALID,92.2967,VALID,0,VALID,18.0846,VALID,136,VALID,0.430859,
2010-12-29, 03:15:04,VALID,913.938,VALID,0,VALID,92.4034,VALID,0,VALID,18.086,VALID,137,VALID,0.548047,
2010-12-29, 03:16:04,VALID,913.984,VALID,0,VALID,92.6016,VALID,0,VALID,18.086,VALID,137,VALID,0.488281,
2010-12-29, 03:17:04,VALID,913.988,VALID,0,VALID,92.411,VALID,0,VALID,18.086,VALID,136,VALID,0.717969,
2010-12-29, 03:18:04,VALID,913.974,VALID,0,VALID,92.1747,VALID,0,VALID,18.1055,VALID,137,VALID,0.857422,
2010-12-29, 03:19:04,VALID,913.968,VALID,0,VALID,91.8622,VALID,0,VALID,18.1236,VALID,147,VALID,0.577734,
2010-12-29, 03:20:04,VALID,913.982,VALID,0,VALID,91.7859,VALID,0,VALID,18.1835,VALID,147,VALID,0.425,
2010-12-29, 03:21:04,VALID,913.976,VALID,0,VALID,91.5953,VALID,0,VALID,18.1835,VALID,147,VALID,0.556641,
2010-12-29, 03:22:04,VALID,913.967,VALID,0,VALID,91.42,VALID,0,VALID,18.1835,VALID,147,VALID,0.619141,
2010-12-29, 03:23:04,VALID,913.971,VALID,0,VALID,91.3209,VALID,0,VALID,18.203,VALID,147,VALID,0.683594,
2010-12-29, 03:24:04,VALID,913.96,VALID,0,VALID,91.3895,VALID,0,VALID,18.203,VALID,147,VALID,0.558203,
2010-12-29, 03:25:04,VALID,913.918,VALID,0,VALID,91.9384,VALID,0,VALID,18.125,VALID,147,VALID,0.516406,
2010-12-29, 03:26:04,VALID,913.932,VALID,0,VALID,91.9231,VALID,0,VALID,18.0665,VALID,147,VALID,0.870313,
2010-12-29, 03:27:04,VALID,913.961,VALID,0,VALID,91.9765,VALID,0,VALID,18.0457,VALID,147,VALID,0.640234,
2010-12-29, 03:28:04,VALID,913.915,VALID,0,VALID,92.068,VALID,0,VALID,18.0275,VALID,147,VALID,0.471094,
2010-12-29, 03:29:04,VALID,913.949,VALID,0,VALID,92.0451,VALID,0,VALID,18.0067,VALID,147,VALID,0.632813,
2010-12-29, 03:30:04,VALID,913.965,VALID,0,VALID,92.0375,VALID,0,VALID,18.0275,VALID,147,VALID,0.730469,
2010-12-29, 03:31:04,VALID,913.953,VALID,0,VALID,92.1976,VALID,0,VALID,18.008,VALID,147,VALID,0.734375,
2010-12-29, 03:32:04,VALID,913.959,VALID,0,VALID,92.3272,VALID,0,VALID,17.9886,VALID,147,VALID,0.985156,
2010-12-29, 03:33:04,VALID,913.948,VALID,0,VALID,92.2967,VALID,0,VALID,17.9886,VALID,147,VALID,0.791016,
2010-12-29, 03:34:04,VALID,913.969,VALID,0,VALID,92.3577,VALID,0,VALID,17.9677,VALID,147,VALID,0.783594,
2010-12-29, 03:35:04,VALID,914,VALID,0,VALID,92.4568,VALID,0,VALID,17.9496,VALID,147,VALID,0.799219,
2010-12-29, 03:36:04,VALID,913.956,VALID,0,VALID,92.594,VALID,0,VALID,17.9092,VALID,147,VALID,0.782422,
2010-12-29, 03:37:04,VALID,913.959,VALID,0,VALID,92.7541,VALID,0,VALID,17.8716,VALID,147,VALID,0.744141,
2010-12-29, 03:38:04,VALID,913.928,VALID,0,VALID,92.9447,VALID,0,VALID,17.8521,VALID,147,VALID,0.648047,
2010-12-29, 03:39:04,VALID,913.946,VALID,0,VALID,93.0362,VALID,0,VALID,17.8131,VALID,147,VALID,0.724609,
2010-12-29, 03:40:04,VALID,913.915,VALID,0,VALID,93.1124,VALID,0,VALID,17.7936,VALID,147,VALID,0.799219,
2010-12-29, 03:41:04,VALID,913.887,VALID,0,VALID,93.181,VALID,0,VALID,17.7741,VALID,147,VALID,1.17031,
2010-12-29, 03:42:04,VALID,913.881,VALID,0,VALID,93.2496,VALID,0,VALID,17.7547,VALID,147,VALID,0.862109,
2010-12-29, 03:43:04,VALID,913.86,VALID,0,VALID,93.4631,VALID,0,VALID,17.7547,VALID,146,VALID,1.01719,
2010-12-29, 03:44:04,VALID,913.872,VALID,0,VALID,93.5546,VALID,0,VALID,17.7143,VALID,146,VALID,0.733203,
2010-12-29, 03:45:04,VALID,913.858,VALID,0,VALID,93.6003,VALID,0,VALID,17.7352,VALID,146,VALID,0.491016,